Location: Cahas Mountain Overlook
(37.0833°N, 80.1000°W)
Time: 21:41:49
(UTC-05:00)

N. Korean satellite - Visible Passes

Search period start: 26 November 2022 00:00
Search period end: 06 December 2022 00:00
Orbit: 422 x 454 km, 97.3° (Epoch: 26 November)

Date Brightness Start Highest point End Pass type
(mag) Time Alt. Az. Time Alt. Az. Time Alt. Az.
26 Nov 7.6 05:17:50 10° NNE 05:21:08 43° E 05:24:22 10° S visible
27 Nov 9.8 04:40:45 10° ENE 04:42:21 13° E 04:43:58 10° ESE visible
27 Nov 7.3 06:11:57 10° NNW 06:14:54 28° WNW 06:17:51 10° SW visible
28 Nov 6.5 05:32:58 10° NNE 05:36:24 76° ESE 05:39:46 10° S visible
28 Nov 9.3 17:33:06 10° SSW 17:35:48 23° W 17:38:33 10° NW visible
29 Nov 9.1 04:55:02 10° NE 04:57:38 20° E 05:00:12 10° SE visible
29 Nov 7.9 06:27:38 10° NNW 06:29:59 18° WNW 06:32:21 10° WSW visible
30 Nov 6.3 05:48:07 10° N 05:51:29 62° WNW 05:54:49 10° SSW visible
30 Nov 9.7 17:49:01 10° SW 17:50:57 15° W 17:52:55 10° WNW visible
01 Dec 8.2 05:09:38 10° NNE 05:12:45 32° E 05:15:47 10° SSE visible
01 Dec 8.3 06:43:41 10° NW 06:44:54 12° WNW 06:46:06 10° W visible
02 Dec 6.9 06:03:15 10° N 06:06:24 36° WNW 06:09:31 10° SW visible
03 Dec 7.1 05:24:19 10° NNE 05:27:39 54° E 05:30:57 10° S visible
04 Dec 9.5 04:46:37 10° ENE 04:48:40 15° E 04:50:42 10° SE visible
04 Dec 7.5 06:18:24 10° NNW 06:21:07 23° WNW 06:23:50 10° SW visible
05 Dec 6.2 05:39:00 10° N 05:42:24 87° WNW 05:45:44 10° SSW visible
05 Dec 9.5 17:39:11 10° SW 17:41:42 20° W 17:44:15 10° NW visible
